| time (UTC) | temp F | wind direction | speed MPH | gust MPH | rain 1hr in | rain 24hr in | rain mn in | humidity % | barometer mb |
| 20260506123048 | 52 | 277 | 1.0 | 3.0 | 0.00 | 0.00 | 0.00 | 61 | 1012.2 |
| 20260506121555 | 53 | 301 | 0.0 | 3.0 | 0.00 | 0.00 | 0.00 | 60 | 1012.2 |
| 20260506120107 | 54 | 223 | 2.0 | 8.0 | 0.00 | 0.00 | 0.00 | 58 | 1012.1 |
| 20260506114544 | 55 | 360 | 3.0 | 8.0 | 0.00 | 0.00 | 0.00 | 58 | 1012.0 |
| 20260506113038 | 55 | 360 | 3.0 | 7.0 | 0.00 | 0.00 | 0.00 | 56 | 1011.9 |
| 20260506111539 | 55 | 225 | 3.0 | 8.0 | 0.00 | 0.00 | 0.00 | 55 | 1011.8 |
| 20260506110035 | 55 | 221 | 5.0 | 9.0 | 0.00 | 0.00 | 0.00 | 56 | 1011.7 |
| 20260506104534 | 55 | 190 | 0.0 | 8.0 | 0.00 | 0.00 | 0.00 | 56 | 1011.7 |
| 20260506103035 | 55 | 198 | 1.0 | 5.0 | 0.00 | 0.00 | 0.00 | 56 | 1011.6 |
| 20260506101530 | 55 | 199 | 2.0 | 6.0 | 0.00 | 0.00 | 0.00 | 57 | 1011.4 |
| 20260506100033 | 55 | 234 | 3.0 | 6.0 | 0.00 | 0.00 | 0.00 | 56 | 1011.4 |
| 20260506094533 | 56 | 360 | 3.0 | 6.0 | 0.00 | 0.00 | 0.00 | 55 | 1011.2 |
| 20260506093041 | 56 | 360 | 4.0 | 7.0 | 0.00 | 0.00 | 0.00 | 55 | 1011.2 |
| 20260506091525 | 56 | 217 | 4.0 | 11.0 | 0.00 | 0.00 | 0.00 | 55 | 1011.1 |
| 20260506090023 | 56 | 191 | 4.0 | 10.0 | 0.00 | 0.00 | 0.00 | 55 | 1011.1 |
| 20260506084521 | 56 | 202 | 6.0 | 10.0 | 0.00 | 0.00 | 0.00 | 54 | 1011.1 |
| 20260506083019 | 57 | 232 | 4.0 | 9.0 | 0.00 | 0.00 | 0.00 | 53 | 1011.1 |
| 20260506081516 | 57 | 360 | 3.0 | 9.0 | 0.00 | 0.00 | 0.00 | 52 | 1011.2 |
| 20260506073009 | 59 | 196 | 6.0 | 12.0 | 0.00 | 0.00 | 0.00 | 49 | 1010.9 |
| 20260506071508 | 59 | 360 | 8.0 | 12.0 | 0.00 | 0.00 | 0.00 | 48 | 1010.8 |
| 20260506061603 | 59 | 212 | 7.0 | 12.0 | 0.00 | 0.00 | 0.00 | 48 | 1010.1 |
| 20260506050113 | 60 | 189 | 7.0 | 14.0 | 0.00 | 0.00 | 0.00 | 47 | 1009.3 |
| 20260506044559 | 60 | 190 | 7.0 | 14.0 | 0.00 | 0.00 | 0.00 | 47 | 1009.2 |
| 20260506043051 | 61 | 212 | 7.0 | 12.0 | 0.00 | 0.00 | 0.00 | 46 | 1009.1 |
| 20260506041553 | 61 | 208 | 6.0 | 12.0 | 0.00 | 0.00 | 0.00 | 46 | 1008.8 |
| 20260506040047 | 62 | 189 | 5.0 | 14.0 | 0.00 | 0.00 | 0.00 | 45 | 1008.7 |
| 20260506034545 | 63 | 227 | 6.0 | 16.0 | 0.00 | 0.00 | 0.00 | 43 | 1008.3 |
| 20260506033043 | 63 | 196 | 6.0 | 15.0 | 0.00 | 0.00 | 0.00 | 42 | 1007.9 |
| 20260506031555 | 64 | 205 | 7.0 | 15.0 | 0.00 | 0.00 | 0.00 | 41 | 1007.7 |
| 20260506030057 | 65 | 201 | 7.0 | 17.0 | 0.00 | 0.00 | 0.00 | 39 | 1007.1 |
| 20260506024541 | 67 | 360 | 8.0 | 17.0 | 0.00 | 0.00 | 0.00 | 38 | 1006.8 |
| 20260506023041 | 68 | 360 | 4.0 | 10.0 | 0.00 | 0.00 | 0.00 | 34 | 1006.6 |
| 20260506021540 | 69 | 202 | 6.0 | 15.0 | 0.00 | 0.00 | 0.00 | 33 | 1006.4 |
| 20260506020039 | 70 | 175 | 5.0 | 10.0 | 0.00 | 0.00 | 0.00 | 34 | 1006.3 |
| 20260506014539 | 70 | 192 | 5.0 | 10.0 | 0.00 | 0.00 | 0.00 | 34 | 1006.2 |
| 20260506013044 | 71 | 232 | 7.0 | 12.0 | 0.00 | 0.00 | 0.00 | 32 | 1006.0 |
| 20260506011538 | 72 | 136 | 5.0 | 12.0 | 0.00 | 0.00 | 0.00 | 30 | 1006.0 |
| 20260506010037 | 73 | 269 | 2.0 | 6.0 | 0.00 | 0.00 | 0.00 | 29 | 1006.0 |
| 20260506004604 | 73 | 292 | 3.0 | 7.0 | 0.00 | 0.00 | 0.00 | 28 | 1005.8 |
| 20260506003036 | 74 | 211 | 3.0 | 6.0 | 0.00 | 0.00 | 0.00 | 28 | 1005.7 |
| 20260506001535 | 74 | 133 | 4.0 | 8.0 | 0.00 | 0.00 | 0.00 | 27 | 1005.6 |
| 20260506000034 | 75 | 308 | 1.0 | 7.0 | 0.00 | 0.00 | 0.00 | 27 | 1005.7 |
| 20260505234603 | 75 | 287 | 5.0 | 8.0 | 0.00 | 0.00 | 0.00 | 27 | 1005.7 |
| 20260505233033 | 75 | 327 | 3.0 | 8.0 | 0.00 | 0.00 | 0.00 | 28 | 1005.6 |
| 20260505231535 | 75 | 348 | 4.0 | 13.0 | 0.00 | 0.00 | 0.00 | 28 | 1005.6 |
| 20260505230030 | 75 | 272 | 2.0 | 4.0 | 0.00 | 0.00 | 0.00 | 26 | 1005.8 |
| 20260505224532 | 74 | 126 | 4.0 | 8.0 | 0.00 | 0.00 | 0.00 | 26 | 1006.0 |
| 20260505223027 | 71 | 198 | 2.0 | 9.0 | 0.00 | 0.00 | 0.00 | 29 | 1006.2 |
| 20260505221528 | 71 | 90 | 2.0 | 8.0 | 0.00 | 0.00 | 0.00 | 28 | 1006.2 |
| 20260505220025 | 72 | 98 | 3.0 | 7.0 | 0.00 | 0.00 | 0.00 | 27 | 1006.6 |
| 20260505214525 | 72 | 321 | 1.0 | 6.0 | 0.00 | 0.00 | 0.00 | 28 | 1006.7 |
| 20260505213024 | 73 | 257 | 1.0 | 7.0 | 0.00 | 0.00 | 0.00 | 27 | 1006.8 |
| 20260505211522 | 75 | 240 | 4.0 | 8.0 | 0.00 | 0.00 | 0.00 | 26 | 1006.8 |
| 20260505210022 | 75 | 148 | 6.0 | 12.0 | 0.00 | 0.00 | 0.00 | 27 | 1006.9 |
| 20260505204525 | 75 | 121 | 3.0 | 9.0 | 0.00 | 0.00 | 0.00 | 27 | 1007.0 |
| 20260505203018 | 73 | 265 | 4.0 | 10.0 | 0.00 | 0.00 | 0.00 | 29 | 1007.0 |
| 20260505201517 | 73 | 194 | 4.0 | 9.0 | 0.00 | 0.00 | 0.00 | 29 | 1007.1 |
| 20260505200022 | 72 | 154 | 3.0 | 9.0 | 0.00 | 0.00 | 0.00 | 30 | 1007.2 |
| 20260505194512 | 71 | 360 | 1.0 | 9.0 | 0.00 | 0.00 | 0.00 | 31 | 1007.3 |
| 20260505193011 | 71 | 139 | 6.0 | 11.0 | 0.00 | 0.00 | 0.00 | 32 | 1007.5 |
| 20260505191508 | 70 | 138 | 7.0 | 17.0 | 0.00 | 0.00 | 0.00 | 33 | 1007.5 |
| 20260505190009 | 69 | 315 | 3.0 | 17.0 | 0.00 | 0.00 | 0.00 | 33 | 1007.6 |
| 20260505184508 | 68 | 23 | 3.0 | 11.0 | 0.00 | 0.00 | 0.00 | 35 | 1007.7 |
| 20260505183010 | 69 | 92 | 9.0 | 16.0 | 0.00 | 0.00 | 0.00 | 35 | 1007.7 |
| 20260505181600 | 68 | 101 | 5.0 | 14.0 | 0.00 | 0.00 | 0.00 | 34 | 1007.8 |
| 20260505174555 | 68 | 64 | 2.0 | 6.0 | 0.00 | 0.00 | 0.00 | 32 | 1007.8 |
| 20260505173053 | 69 | 155 | 3.0 | 5.0 | 0.00 | 0.00 | 0.00 | 33 | 1007.7 |
| 20260505171548 | 67 | 62 | 1.0 | 7.0 | 0.00 | 0.00 | 0.00 | 35 | 1007.8 |
| 20260505170045 | 65 | 193 | 2.0 | 9.0 | 0.00 | 0.00 | 0.00 | 37 | 1007.8 |
| 20260505164540 | 63 | 360 | 1.0 | 7.0 | 0.00 | 0.00 | 0.00 | 40 | 1007.7 |
| 20260505163035 | 63 | 63 | 4.0 | 10.0 | 0.00 | 0.00 | 0.00 | 41 | 1007.7 |
| 20260505161531 | 64 | 103 | 4.0 | 8.0 | 0.00 | 0.00 | 0.00 | 41 | 1007.6 |
| 20260505153022 | 60 | 360 | 2.0 | 5.0 | 0.00 | 0.00 | 0.00 | 44 | 1007.6 |
| 20260505151519 | 59 | 360 | 2.0 | 4.0 | 0.00 | 0.00 | 0.00 | 45 | 1007.5 |
| 20260505140117 | 52 | 313 | 0.0 | 4.0 | 0.00 | 0.00 | 0.00 | 56 | 1007.2 |
| 20260505124548 | 52 | 196 | 3.0 | 7.0 | 0.00 | 0.00 | 0.00 | 60 | 1006.6 |